Location: Unspecified
(0.0000°N, 0.0000°E)
Time: 00:16:26
(UTC+02:00)

DELTA 2 R/B (1) - Visible Passes

Search period start: 28 June 2016 00:00
Search period end: 08 July 2016 00:00
Orbit: 791 x 803 km, 39.6° (Epoch: 26 June)

Date Brightness Start Highest point End Pass type
(mag) Time Alt. Az. Time Alt. Az. Time Alt. Az.
04 Jul 6.1 22:40:12 10° N 22:40:32 11° N 22:40:32 11° N visible
05 Jul 5.8 22:09:52 10° N 22:11:22 13° NNE 22:11:22 13° NNE visible
06 Jul 5.7 21:39:42 10° NNE 21:41:47 12° NE 21:42:16 12° NE visible
06 Jul 6.4 23:22:44 10° NW 23:23:03 12° NW 23:23:03 12° NW visible
07 Jul 5.8 21:09:57 10° NNE 21:10:58 10° NE 21:11:59 10° NE visible
07 Jul 5.6 22:51:58 10° NW 22:54:00 23° NW 22:54:00 23° NW visible
